Regional Weather Roundup
Issued by NWS

Home | Current Version | Previous Version | Text Only | Print | Product List | Glossary Off
Versions: 1 2 3 4 5 6 7 8 9 10 11 12 13 14 15 16 17 18 19 20 21 22 23 24 25 26 27 28 29 30 31 32 33 34 35 36 37 38 39 40 41 42 43 44 45 46 47 48 49 50

000
ASUS44 KMEG 250910
RWRTN
TENNESSEE HOURLY STATE WEATHER ROUNDUP
NATIONAL WEATHER SERVICE MEMPHIS TN
300 AM CST SUN JAN 25 2015

TNZ002-004-019-021-049-052-054-088>092-251000-
WEST TENNESSEE

CITY           SKY/WX    TMP DP  RH WIND       PRES   REMARKS
MEMPHIS INTL   PTCLDY    38  32  79 S8        29.84F WCI  32
NWS MEMPHIS      N/A     39 N/A N/A MISG        N/A
JACKSON        PTCLDY    39  33  79 S10       29.84F WCI  32
DYERSBURG      PTCLDY    41  25  52 S5        29.82F
UNION CITY     CLEAR     34  34 100 S8        29.78F WCI  27
PARIS          CLEAR     37  30  75 SW8       29.81F WCI  31
LEXINGTON      CLEAR     36  30  80 S7        29.84F WCI  30
SAVANNAH       CLEAR     37  32  81 SE5       29.89F WCI  34
$$

TNZ008-025-027-028-033-062-065-066-251000-
NORTH MIDDLE TENNESSEE

CITY           SKY/WX    TMP DP  RH WIND       PRES   REMARKS
NASHVILLE      PTCLDY    36  30  79 S7        29.87S WCI  30
CLARKSVILLE    MOCLDY    41  32  70 SW10      29.82S
SMYRNA         PTCLDY    33  30  89 SE3       29.89F
COOKEVILLE     CLEAR     36  30  80 S6        29.87F WCI  31
CROSSVILLE     CLEAR     32  26  78 SW6       29.88S WCI  26
$$

TNZ061-075-076-078-094-096-097-251000-
SOUTH MIDDLE TENNESSEE

CITY           SKY/WX    TMP DP  RH WIND       PRES   REMARKS
FAYETTEVILLE   CLEAR     30  27  86 MISG      29.90F
TULLAHOMA      CLEAR     34  28  80 S3        29.90F
WINCHESTER     CLEAR     28  27  93 CALM      29.92S
MCMINNVILLE    CLEAR     37  30  75 S6        29.88F WCI  33
COLUMBIA         N/A     37  37 100 S6        29.86F WCI  33
SHELBYVILLE    CLEAR     34  30  86 S6        29.90F WCI  29
$$

TNZ017-018-042-046-047-251000-
NORTHEAST TENNESSEE

CITY           SKY/WX    TMP DP  RH WIND       PRES   REMARKS
TRI CITIES     CLEAR     27  25  92 CALM      29.89S
ELIZABETHTON   MOSUNNY   27  25  93 CALM      29.89S
$$

TNZ012-013-036-069-073-074-251000-
CENTRAL EAST TENNESSEE

CITY           SKY/WX    TMP DP  RH WIND       PRES   REMARKS
KNOXVILLE      PTCLDY    32  27  81 SW8       29.91F WCI  25
OAK RIDGE      FAIR      30  27  88 CALM      29.92F
GATLINBURG     SUNNY     27  25  93 CALM      29.91S
MORRISTOWN     SUNNY     30  27  86 CALM      29.89F
$$

TNZ083-085-099-251000-
SOUTHEAST TENNESSEE

CITY           SKY/WX    TMP DP  RH WIND       PRES   REMARKS
CHATTANOOGA    CLEAR     32  28  85 CALM      29.94F
$$

SKY/WX REPORTED AS FAIR MEANS FEW OR NO CLOUDS BELOW
12 THOUSAND FEET.



USA.gov is the U.S. government's official web portal to all federal, state and local government web resources and services.